(192631) = 1999 LG29 = 2003 KA30

Discovered at Kitt Peak on 1999-06-09 by Spacewatch.

Orbit

Orbit type: Main Belt

Note: WebGL enabled browser required.

epoch2023-09-13.0
epoch JD2460200.5
perihelion date2019-12-12.58872
perihelion JD2458830.08872
argument of perihelion (°)176.95782
ascending node (°)117.38533
inclination (°)7.85026
eccentricity0.2260524
perihelion distance (AU)1.9614505
Tisserand w.r.t. Jupiter3.4
ΔV w.r.t. Earth (km/sec)9.1
semimajor axis (AU)2.5343454
mean anomaly (°)334.77734
mean daily motion (°/day)0.24428970
aphelion distance (AU)3.107
period (years)4.03
P-vector [x]0.41264236
P-vector [y]-0.83858500
P-vector [z]-0.35567046
Q-vector [x]0.90278342
Q-vector [y]0.42849109
Q-vector [z]0.03711437
absolute magnitude16.19
phase slope0.15
uncertainty0
referenceMPEC 2023-P27
observations used778
oppositions17
arc length (days)8842
first opposition used1999
last opposition used2023
residual rms (arc-secs)0.76
perturbers coarse indicatorM-v
perturbers precise indicator003Ek
first observation date used1999-05-22.0
last observation date used2023-08-06.0
computer nameMPCLINUX
JD of orbit computation2456731.455302
perihelion JD uncertainty (days)7.4005E-05
argument of perihelion uncertainty (°)4.0089E-05
ascending node uncertainty (°)3.7866E-05
inclination uncertainty (°)4.8557E-06
eccentricity uncertainty 5.6614E-08
perihelion distance uncertainty (AU)1.4312E-07
Minimum Orbit Intersection Distances (in AU)
for orbit epoch: 2460200.5, reference: E2023-P27
Mercury1.51534
Venus1.2345
Earth0.94486
Mars0.54663
Jupiter2.09637
Saturn5.9743
Uranus15.4876
Neptune27.0154

Observations

763 total observations over interval: 1999 05 22.30733 – 2023 08 06.295390
These data are available for download (format description).

Date (UT) J2000 RA J2000 Dec Magn Location Ref
1999 05 22.30733 16 24 38.65 -09 20 34.7 19.0 R 699 – Lowell Observatory-LONEOS MPS 5633
1999 05 22.32006 16 24 37.89 -09 20 34.1   699 – Lowell Observatory-LONEOS MPS 5633
1999 05 22.33278 16 24 37.23 -09 20 32.0   699 – Lowell Observatory-LONEOS MPS 5633
1999 06 06.33847 16 10 47.03 -09 31 59.3 18.3 R 699 – Lowell Observatory-LONEOS MPS 67538
1999 06 06.35120 16 10 46.25 -09 31 59.6   699 – Lowell Observatory-LONEOS MPS 67538
1999 06 06.36395 16 10 45.52 -09 32 02.3   699 – Lowell Observatory-LONEOS MPS 67538
1999 06 09.17041 16 08 16.91 -09 38 23.9 18.6 V 691 – Steward Observatory, Kitt Peak-Spacewatch MPS 5284
1999 06 09.19193 16 08 15.73 -09 38 27.1 18.7 V 691 – Steward Observatory, Kitt Peak-Spacewatch MPS 5284
1999 06 09.21337 16 08 14.51 -09 38 30.5 18.5 V 691 – Steward Observatory, Kitt Peak-Spacewatch MPS 5284
1999 06 14.23187 16 04 05.50 -09 53 19.8 19.5   704 – Lincoln Laboratory ETS, New Mexico MPS 5633
1999 06 14.24424 16 04 04.75 -09 53 21.0 19.8   704 – Lincoln Laboratory ETS, New Mexico MPS 5633
1999 06 14.24562 16 04 04.81 -09 53 20.9 18.8 V 691 – Steward Observatory, Kitt Peak-Spacewatch MPS 5284
1999 06 14.25662 16 04 04.22 -09 53 24.0 19.8   704 – Lincoln Laboratory ETS, New Mexico MPS 5633
1999 06 14.26683 16 04 03.76 -09 53 25.1 18.8 V 691 – Steward Observatory, Kitt Peak-Spacewatch MPS 5284
1999 06 14.26906 16 04 03.69 -09 53 26.9 20.1   704 – Lincoln Laboratory ETS, New Mexico MPS 5633
1999 06 14.28145 16 04 03.02 -09 53 28.6 20.0   704 – Lincoln Laboratory ETS, New Mexico MPS 5633
1999 06 14.28785 16 04 02.70 -09 53 29.4 18.8 V 691 – Steward Observatory, Kitt Peak-Spacewatch MPS 5284
1999 06 18.28367 16 01 06.42 -10 08 24.7 18.9 V 691 – Steward Observatory, Kitt Peak-Spacewatch MPS 5284
1999 06 18.30516 16 01 05.47 -10 08 29.9 18.9 V 691 – Steward Observatory, Kitt Peak-Spacewatch MPS 5284
1999 06 18.32643 16 01 04.55 -10 08 35.0 19.0 V 691 – Steward Observatory, Kitt Peak-Spacewatch MPS 5284
2002 02 12.26637 08 47 14.74 +21 08 32.5 20.8   704 – Lincoln Laboratory ETS, New Mexico MPS 82363
2002 02 12.28084 08 47 13.95 +21 08 36.5 20.1   704 – Lincoln Laboratory ETS, New Mexico MPS 82363
2002 02 12.29506 08 47 13.08 +21 08 40.8 20.2   704 – Lincoln Laboratory ETS, New Mexico MPS 82363
2003 04 28.33056 16 03 25.28 -07 36 54.3 18.4 C 704 – Lincoln Laboratory ETS, New Mexico MPS 291419
2003 04 28.34668 16 03 24.64 -07 36 51.5 19.4 V 291 – LPL/Spacewatch II MPS 82420
2003 04 28.35442 16 03 24.32 -07 36 51.4 18.5 C 704 – Lincoln Laboratory ETS, New Mexico MPS 291419
2003 04 28.36995 16 03 23.74 -07 36 46.8 19.3 V 291 – LPL/Spacewatch II MPS 82420
2003 04 28.39597 16 03 22.77 -07 36 41.2 19.2 V 291 – LPL/Spacewatch II MPS 82420
2003 05 20.46591 15 45 36.05 -06 41 49.2 20.5   608 – Haleakala-AMOS MPS 82420
2003 05 20.47626 15 45 35.43 -06 41 48.7 20.2   608 – Haleakala-AMOS MPS 82420
2003 05 20.48688 15 45 34.79 -06 41 48.2 20.1   608 – Haleakala-AMOS MPS 82420
2003 05 25.23566 15 41 07.61 -06 38 54.0 18.7 V 691 – Steward Observatory, Kitt Peak-Spacewatch MPS 82420
2003 05 25.26328 15 41 05.99 -06 38 53.6 18.7 V 691 – Steward Observatory, Kitt Peak-Spacewatch MPS 82420
2003 05 25.29011 15 41 04.42 -06 38 53.5 18.7 V 691 – Steward Observatory, Kitt Peak-Spacewatch MPS 82420
2003 05 30.27158 15 36 30.01 -06 40 19.6 18.3   704 – Lincoln Laboratory ETS, New Mexico MPS 82420
2003 05 30.28217 15 36 29.41 -06 40 20.2 18.3   704 – Lincoln Laboratory ETS, New Mexico MPS 82420
2003 05 30.29270 15 36 28.83 -06 40 20.6 18.7   704 – Lincoln Laboratory ETS, New Mexico MPS 82420
2003 05 30.30334 15 36 28.22 -06 40 20.7 18.3   704 – Lincoln Laboratory ETS, New Mexico MPS 82420
2003 06 06.22815 15 30 37.23 -06 50 33.1 17.5   704 – Lincoln Laboratory ETS, New Mexico MPS 82420
2003 06 06.23819 15 30 36.76 -06 50 34.7 17.9   704 – Lincoln Laboratory ETS, New Mexico MPS 82420
2003 06 06.24825 15 30 36.23 -06 50 35.7 18.1   704 – Lincoln Laboratory ETS, New Mexico MPS 82420
2003 06 06.25834 15 30 35.72 -06 50 37.0 18.2   704 – Lincoln Laboratory ETS, New Mexico MPS 82420
2003 06 06.26840 15 30 35.29 -06 50 37.7 18.5   704 – Lincoln Laboratory ETS, New Mexico MPS 82420
2003 06 22.23032 15 21 13.52 -07 50 14.7 18.9 R 699 – Lowell Observatory-LONEOS MPS 82420
2003 06 22.24786 15 21 13.04 -07 50 18.4   699 – Lowell Observatory-LONEOS MPS 82420
2003 06 22.26543 15 21 12.72 -07 50 24.9   699 – Lowell Observatory-LONEOS MPS 82420
2003 06 22.28301 15 21 12.26 -07 50 29.5   699 – Lowell Observatory-LONEOS MPS 82420
2003 07 23.16771 15 25 46.99 -11 35 58.3 20.0   644 – Palomar Mountain/NEAT MPS 82420
2003 07 23.17900 15 25 47.40 -11 36 04.3 19.8   644 – Palomar Mountain/NEAT MPS 82420
2003 07 23.19031 15 25 47.83 -11 36 10.1 19.7   644 – Palomar Mountain/NEAT MPS 82420
2005 11 25.49191 09 15 41.94 +16 05 25.7 22.6 V G96 – Mt. Lemmon Survey MPS 151784
2005 11 25.49757 09 15 42.01 +16 05 24.6 21.5 V G96 – Mt. Lemmon Survey MPS 151784
2005 11 25.50323 09 15 42.08 +16 05 25.0 21.6 V G96 – Mt. Lemmon Survey MPS 151784
2005 11 25.50897 09 15 42.19 +16 05 25.4 21.5 V G96 – Mt. Lemmon Survey MPS 151784
2005 12 28.44450 09 12 40.03 +17 22 22.8 20.6 V G96 – Mt. Lemmon Survey MPS 156348
2005 12 28.45183 09 12 39.78 +17 22 24.5 20.6 V G96 – Mt. Lemmon Survey MPS 156348
2005 12 28.45939 09 12 39.56 +17 22 26.7 20.7 V G96 – Mt. Lemmon Survey MPS 156348
2005 12 28.46743 09 12 39.34 +17 22 29.1 20.8 V G96 – Mt. Lemmon Survey MPS 156348
2005 12 30.48575 09 11 37.50 +17 31 27.1 21.1 V 691 – Steward Observatory, Kitt Peak-Spacewatch MPS 156348
2005 12 30.48824 09 11 37.41 +17 31 27.9 20.8 V 691 – Steward Observatory, Kitt Peak-Spacewatch MPS 156348
2005 12 30.50314 09 11 36.94 +17 31 31.7 21.1 V 691 – Steward Observatory, Kitt Peak-Spacewatch MPS 156348
2005 12 30.50562 09 11 36.87 +17 31 32.2 21.0 V 691 – Steward Observatory, Kitt Peak-Spacewatch MPS 156348
2005 12 30.52055 09 11 36.37 +17 31 36.4 20.9 V 691 – Steward Observatory, Kitt Peak-Spacewatch MPS 156348
2005 12 30.52303 09 11 36.29 +17 31 37.1 20.8 V 691 – Steward Observatory, Kitt Peak-Spacewatch MPS 156349
2006 01 04.45427 09 08 41.87 +17 55 15.3 21.1 V 691 – Steward Observatory, Kitt Peak-Spacewatch MPS 157530
2006 01 04.47170 09 08 41.14 +17 55 20.8 20.9 V 691 – Steward Observatory, Kitt Peak-Spacewatch MPS 157530
2006 01 04.48913 09 08 40.47 +17 55 26.3 20.8 V 691 – Steward Observatory, Kitt Peak-Spacewatch MPS 157530
2006 01 07.36854 09 06 44.20 +18 10 14.4 20.5 V G96 – Mt. Lemmon Survey MPS 158734
2006 01 07.37655 09 06 43.84 +18 10 17.4 20.7 V G96 – Mt. Lemmon Survey MPS 158734
2006 01 07.38453 09 06 43.52 +18 10 19.8 20.7 V G96 – Mt. Lemmon Survey MPS 158734
2006 01 07.39250 09 06 43.12 +18 10 22.1 20.6 V G96 – Mt. Lemmon Survey MPS 158734
2006 01 07.47010 09 06 39.78 +18 10 46.8 20.6 V G96 – Mt. Lemmon Survey MPS 158734
2006 01 07.47268 09 06 39.63 +18 10 47.5 20.4 V G96 – Mt. Lemmon Survey MPS 158734
2006 01 07.47536 09 06 39.56 +18 10 48.3 20.5 V G96 – Mt. Lemmon Survey MPS 158734
2006 01 07.47798 09 06 39.38 +18 10 49.4 20.7 V G96 – Mt. Lemmon Survey MPS 158734
2006 01 10.39032 09 04 31.44 +18 26 27.9 20.4 V G96 – Mt. Lemmon Survey MPS 158734
2006 01 10.39808 09 04 31.08 +18 26 30.8 20.8 V G96 – Mt. Lemmon Survey MPS 158734
2006 01 10.40586 09 04 30.72 +18 26 33.0 21.2 V G96 – Mt. Lemmon Survey MPS 158734
2006 01 10.41375 09 04 30.32 +18 26 35.5 21.0 V G96 – Mt. Lemmon Survey MPS 158734
2006 01 25.19001 08 51 41.56 +19 51 30.1   691 – Steward Observatory, Kitt Peak-Spacewatch MPS 160174
2006 01 25.20722 08 51 40.58 +19 51 36.1   691 – Steward Observatory, Kitt Peak-Spacewatch MPS 160174
2006 01 25.22449 08 51 39.57 +19 51 41.4   691 – Steward Observatory, Kitt Peak-Spacewatch MPS 160174
2006 01 26.32221 08 50 36.88 +19 58 05.9 20.1 V 703 – Catalina Sky Survey MPS 160174
2006 01 26.32850 08 50 36.56 +19 58 07.0 20.6 V 703 – Catalina Sky Survey MPS 160174
2006 01 26.33475 08 50 36.09 +19 58 10.2 21.5 V 703 – Catalina Sky Survey MPS 160174
2006 01 26.34104 08 50 35.84 +19 58 11.6 20.4 V 703 – Catalina Sky Survey MPS 160174
2006 03 04.19280 08 20 07.65 +22 45 27.2 21.0 V G96 – Mt. Lemmon Survey MPS 165890
2006 03 04.19834 08 20 07.47 +22 45 27.9 21.0 V G96 – Mt. Lemmon Survey MPS 165890
